Flag for Germany Weather past 2 weeks in Sankt Ingbert, Saarland, Germany

Now
77 °F

Scattered clouds.


Feels Like: 78 °F
Forecast: 52 / 80 °F
Wind: 2 mph from Northwest

Location: Saarbruecken / Ensheim

Current Time: Aug 1, 2015 at 6:19:42 PM

Latest Report: Aug 1, 2015 at 6:00 PM


Visibility: 37 mi

Pressure: 29.92 "Hg

Humidity: 28%

Dew point: 42 °F

Location of Sankt IngbertLocation

Historic Weather in Sankt Ingbert — Graph

°F

Sankt Ingbert temperature yesterday

Maximum temperature yesterday: 70 °F (at 6:00 PM)
Minimum temperature yesterday: 44 °F (at 4:00 AM)
Average temperature yesterday: 59 °F

Past Weeks' High & Low Weather Summary

 TemperatureHumidityPressure
High93 °F (Jul 17, 5:00 PM)97% (Jul 25, 4:00 AM)30.14 "Hg (Jul 25, 4:00 AM)
Low44 °F (Jul 31, 4:00 AM)27% (Jul 17, 5:00 PM)29.65 "Hg (Jul 24, 8:00 PM)
Average67 °F65%29.92 "Hg
* Reported Jul 17 5:00 PM — Aug 1 5:00 PM, Sankt Ingbert, Weather by CustomWeather, © 2015

Note: Actual official high and low records may vary slightly from our data, if they occured in-between our weather recording intervals... More about our weather records

Advertising

Sankt Ingbert weather history for previous 24 hours

 ConditionsComfort  
Time TempWeatherWind HumidityBarometerVisibility
5:00 PM
Sat, Aug 1
77 °FPartly sunny.3 mph27%29.92 "Hg37 mi
4:00 PM77 °FScattered clouds.5 mph31%29.92 "Hg37 mi
3:00 PM77 °FScattered clouds.3 mph34%29.92 "Hg37 mi
2:00 PM73 °FScattered clouds.2 mph41%29.93 "Hg37 mi
1:00 PM73 °FPassing clouds.3 mph37%29.93 "Hg37 mi
12:00 PM71 °FPassing clouds.2 mph42%29.94 "Hg37 mi
11:00 AM69 °FPassing clouds.2 mph43%29.94 "Hg31 mi
10:00 AM64 °FScattered clouds.2 mph50%29.95 "Hg31 mi
9:00 AM60 °FScattered clouds.3 mph56%29.95 "Hg31 mi
8:00 AM57 °FPartly sunny.3 mph62%29.95 "Hg28 mi
7:00 AM56 °FOvercast.5 mph64%29.93 "Hg28 mi
6:00 AM56 °FOvercast.6 mph62%29.91 "Hg25 mi
5:00 AM58 °FOvercast.6 mph58%29.91 "Hg25 mi
4:00 AM58 °FOvercast.6 mph58%29.91 "Hg25 mi
3:00 AM59 °FOvercast.7 mph56%29.92 "Hg25 mi
2:00 AM60 °FOvercast.6 mph55%29.94 "Hg25 mi
1:00 AM61 °FOvercast.5 mph52%29.94 "Hg31 mi
12:00 AM62 °FOvercast.6 mph52%29.94 "Hg31 mi
11:00 PM
Fri, Jul 31
62 °FOvercast.5 mph52%29.96 "Hg31 mi
10:00 PM63 °FOvercast.5 mph51%29.96 "Hg31 mi
9:00 PM65 °FOvercast.5 mph46%29.95 "Hg31 mi
8:00 PM69 °FPartly sunny.5 mph39%29.95 "Hg31 mi
7:00 PM70 °FScattered clouds.6 mph36%29.95 "Hg37 mi
6:00 PM70 °FPartly sunny.5 mph35%29.96 "Hg37 mi
Weather by CustomWeather, © 2015

See weather overviewHow to use our weather pages